Weather History for Rexburg, ID

Change the Weather History Date:

Friday, May 17, 2013

  Actual Average Record
Temperature  
Mean Temperature 55 °F 53 °F  
Max Temperature 61 °F 67 °F 84 °F (2006)
Min Temperature 49 °F 39 °F 31 °F (1999)
Degree Days  
Heating Degree Days 10 12  
Month to date heating degree days 169 248  
Since 1 July heating degree days 7513 7813  
Cooling Degree Days 0 0  
Month to date cooling degree days 2 0  
Year to date cooling degree days 2 0  
Growing Degree Days 4 (Base 50)    
Moisture  
Dew Point 44 °F    
Average Humidity 73    
Maximum Humidity 93    
Minimum Humidity 53    
Precipitation  
Precipitation 0.05 in 0.05 in 0.80 in (1987)
Month to date precipitation 0.25 0.91  
Year to date precipitation 3.26 5.02  
Sea Level Pressure  
Sea Level Pressure 29.84 in    
Wind  
Wind Speed 9 mph (SSW)    
Max Wind Speed 20 mph    
Max Gust Speed 25 mph    
Visibility 10 miles    
Events Rain    
T = Trace of Precipitation, MM = Missing Value Source: NWS Daily Summary

Daily Weather History Graph

Daily Weather History Graph

Search for Another Location

Airport:

Trip Planner

Search our weather history database for the weather conditions in past years. The results will help you decide how hot, cold, wet, or windy it might be!

Date:

Astronomy

May. 17, 2013 Rise Set
Actual Time 5:59 AM MDT 8:48 PM MDT
Civil Twilight 5:25 AM MDT 9:22 PM MDT
Nautical Twilight 4:43 AM MDT 10:05 PM MDT
Astronomical Twilight 3:53 AM MDT 10:54 PM MDT
Moon 12:41 PM MDT (5/17) 1:37 AM MDT (5/17)
Length of Visible Light 15h 56m
Length of Day
14h 49m
Waxing Crescent, 46% of the Moon is Illuminated
May 17
Waxing Crescent
May 17
First Quarter
May 24
Full
May 31
Last Quarter
Jun 8
New

Hourly Weather History & Observations

Time (MDT) Temp. Dew Point Humidity Pressure Visibility Wind Dir Wind Speed Gust Speed Precip Events Conditions
12:53 AM 53.1 °F 43.0 °F 69% 29.81 in 10.0 mi South 6.9 mph - 0.00 in   Overcast
1:53 AM 51.1 °F 45.0 °F 80% 29.79 in 10.0 mi Calm Calm - N/A   Overcast
2:53 AM 51.1 °F 46.9 °F 86% 29.79 in 10.0 mi Calm Calm - 0.00 in Rain Light Rain
3:53 AM 51.1 °F 46.9 °F 86% 29.80 in 10.0 mi Calm Calm - 0.00 in   Overcast
4:53 AM 51.1 °F 43.0 °F 74% 29.80 in 10.0 mi South 4.6 mph - N/A   Overcast
6:53 AM 51.1 °F 43.0 °F 74% 29.81 in 10.0 mi SSW 4.6 mph - N/A   Overcast
7:53 AM 50.0 °F 44.1 °F 80% 29.82 in 10.0 mi South 6.9 mph - 0.00 in   Overcast
8:53 AM 50.0 °F 45.0 °F 83% 29.84 in 10.0 mi South 6.9 mph - 0.00 in Rain Light Rain
9:53 AM 50.0 °F 48.0 °F 93% 29.85 in 7.0 mi South 5.8 mph - 0.04 in Rain Light Rain
10:32 AM 51.8 °F 48.2 °F 88% 29.90 in 10.0 mi SSW 9.2 mph - 0.01 in Rain Light Rain
10:41 AM 51.8 °F 48.2 °F 88% 29.90 in 10.0 mi SSW 8.1 mph - 0.01 in Rain Light Rain
10:53 AM 51.1 °F 46.9 °F 86% 29.85 in 10.0 mi SSW 13.8 mph - 0.01 in   Overcast
11:37 AM 51.8 °F 46.4 °F 82% 29.91 in 10.0 mi SSW 13.8 mph - 0.00 in   Overcast
11:53 AM 53.1 °F 46.9 °F 80% 29.84 in 10.0 mi SSW 12.7 mph - 0.00 in   Overcast
1:53 PM 57.0 °F 44.1 °F 62% 29.83 in 10.0 mi South 13.8 mph 20.7 mph N/A   Mostly Cloudy
2:53 PM 57.9 °F 42.1 °F 56% 29.84 in 10.0 mi SSW 17.3 mph 21.9 mph N/A   Mostly Cloudy
3:53 PM 57.9 °F 43.0 °F 58% 29.83 in 10.0 mi South 12.7 mph 20.7 mph N/A   Clear
4:53 PM 59.0 °F 42.1 °F 53% 29.83 in 10.0 mi SSW 16.1 mph 23.0 mph N/A   Clear
5:53 PM 59.0 °F 42.1 °F 53% 29.83 in 10.0 mi South 15.0 mph 20.7 mph N/A   Clear
6:53 PM 57.9 °F 42.1 °F 56% 29.83 in 10.0 mi SSW 13.8 mph - N/A   Clear
7:53 PM 57.9 °F 43.0 °F 58% 29.84 in 10.0 mi SSW 15.0 mph 19.6 mph N/A   Clear
8:53 PM 55.0 °F 43.0 °F 64% 29.85 in 10.0 mi SSW 8.1 mph - N/A   Clear
9:53 PM 52.0 °F 43.0 °F 71% 29.89 in 10.0 mi SSW 3.5 mph - N/A   Clear
10:53 PM 50.0 °F 43.0 °F 77% 29.90 in 10.0 mi SSW 6.9 mph - N/A   Scattered Clouds
11:53 PM 50.0 °F 42.1 °F 74% 29.88 in 10.0 mi South 8.1 mph - N/A   Clear